Date String (YYYY-MM-DD hh:mm:ss) UTC,Instrument flags,absolute air pressure of the measurement (hPa),sample flow rate (lpm),inlet stack bypass flow (lpm),air temperature of the measurement (°C),ambient temperature measured by the external sensor (°C),aerosol sample conditioner tube jacket temperature (°C),OPC LED temperature (°C),internal box temperature (°C),relative humidity of the measurement (%),span deviation,mass concentration of particles derived from Lorenz-Mie calculation of OPC scattering (μg/m³),mass concentration of particles derived from Lorenz-Mie calculation of OPC scattering (μg/m³),mass concentration of particles derived from Lorenz-Mie calculation of OPC scattering (μg/m³)
DateTimeUTC,F1_M11,P_M11,Q1_M11,Q2_M11,T1_M11,T2_M11,T3_M11,T4_M11,T5_M11,U1_M11,ZSPAN_M11,X0_M11,X2_M11,X1_M11
2024-05-22 06:00:00,SystemResetWarning,0829.3,4.99,000.00,026.4,025.6,000.0,034.7,028.1,010.0,0000.0,0003.15,0002.11,0001.68
2024-05-22 06:01:00,SystemResetWarning,0829.4,4.99,000.00,026.4,025.6,000.0,034.7,028.1,010.0,0000.0,0003.17,0002.12,0001.68
2024-05-22 06:02:00,SystemResetWarning,0829.4,4.99,000.00,026.4,025.6,000.0,034.7,028.1,010.0,0000.0,0003.23,0002.16,0001.71
2024-05-22 06:03:00,SystemResetWarning,0829.3,5.01,000.00,026.4,025.5,000.0,034.7,028.1,010.0,0000.0,0003.09,0002.17,0001.72
2024-05-22 06:04:00,SystemResetWarning,0829.2,5.01,000.00,026.4,025.5,000.0,034.7,028.1,009.7,0000.0,0003.12,0002.19,0001.74
2024-05-22 06:05:00,SystemResetWarning,0829.2,5.01,000.00,026.3,025.5,000.0,034.7,028.1,009.6,0000.0,0003.10,0002.18,0001.74
2024-05-22 06:06:00,SystemResetWarning,0829.2,5.00,000.00,026.3,025.5,000.0,034.7,028.1,009.8,0000.0,0003.18,0002.20,0001.75
2024-05-22 06:07:00,SystemResetWarning,0829.1,4.99,000.00,026.3,025.5,000.0,034.7,028.1,010.1,0000.0,0003.03,0002.14,0001.74
2024-05-22 06:08:00,SystemResetWarning,0829.1,4.99,000.00,026.3,025.5,000.0,034.7,028.0,009.7,0000.0,0002.94,0002.11,0001.74
2024-05-22 06:09:00,SystemResetWarning,0829.1,5.00,000.00,026.3,025.4,000.0,034.7,028.0,009.9,0000.0,0002.88,0002.11,0001.75
2024-05-22 06:10:00,SystemResetWarning,0829.1,4.99,000.00,026.3,025.4,000.0,034.6,028.0,010.0,0000.0,0002.73,0002.09,0001.76
2024-05-22 06:11:00,SystemResetWarning,0829.0,5.00,000.00,026.2,025.4,000.0,034.6,028.0,010.0,0000.0,0002.69,0002.07,0001.77
2024-05-22 06:12:00,SystemResetWarning,0829.0,5.01,000.00,026.2,025.4,000.0,034.6,028.0,009.8,0000.0,0002.64,0002.06,0001.77
2024-05-22 06:13:00,SystemResetWarning,0829.0,5.00,000.00,026.2,025.4,000.0,034.6,028.0,010.1,0000.0,0002.50,0002.03,0001.77
2024-05-22 06:14:00,SystemResetWarning,0828.9,5.00,000.00,026.2,025.3,000.0,034.6,028.0,010.1,0000.0,0002.59,0002.03,0001.76
2024-05-22 06:15:00,SystemResetWarning,0828.9,5.00,000.00,026.2,025.3,000.0,034.6,028.0,010.0,0000.0,0002.62,0002.03,0001.75
2024-05-22 06:16:00,SystemResetWarning,0829.0,5.00,000.00,026.1,025.2,000.0,034.6,027.9,010.1,0000.0,0002.59,0002.01,0001.75
2024-05-22 06:17:00,SystemResetWarning,0829.0,5.00,000.00,026.1,025.2,000.0,034.5,027.9,010.2,0000.0,0002.55,0002.02,0001.75
2024-05-22 06:18:00,SystemResetWarning,0828.9,4.99,000.00,026.1,025.2,000.0,034.5,027.9,010.1,0000.0,0002.75,0002.05,0001.76
2024-05-22 06:19:00,SystemResetWarning,0828.9,4.99,000.00,026.1,025.1,000.0,034.5,027.9,010.2,0000.0,0002.78,0002.05,0001.76
2024-05-22 06:20:00,SystemResetWarning,0829.0,5.01,000.00,026.1,025.1,000.0,034.5,027.8,010.1,0000.0,0002.69,0002.00,0001.74
2024-05-22 06:21:00,SystemResetWarning,0829.1,5.01,000.00,026.1,025.1,000.0,034.5,027.8,010.2,0000.0,0003.50,0002.01,0001.73
2024-05-22 06:22:00,SystemResetWarning,0829.1,5.00,000.00,026.1,025.1,000.0,034.5,027.8,010.4,0000.0,0003.77,0002.04,0001.73
2024-05-22 06:23:00,SystemResetWarning,0829.1,4.99,000.00,026.0,025.1,000.0,034.4,027.7,010.4,0000.0,0003.91,0002.06,0001.73
2024-05-22 06:24:00,SystemResetWarning,0829.1,4.99,000.00,026.0,025.1,000.0,034.4,027.7,010.0,0000.0,0003.98,0002.07,0001.70
2024-05-22 06:25:00,SystemResetWarning,0829.1,5.01,000.00,026.0,025.1,000.0,034.4,027.7,009.7,0000.0,0004.03,0002.11,0001.70
2024-05-22 06:26:00,SystemResetWarning,0829.1,5.01,000.00,026.0,025.1,000.0,034.4,027.7,010.0,0000.0,0003.98,0002.10,0001.71
2024-05-22 06:27:00,SystemResetWarning,0829.0,4.99,000.00,026.0,025.0,000.0,034.4,027.7,010.0,0000.0,0004.04,0002.12,0001.71
2024-05-22 06:28:00,SystemResetWarning,0828.9,5.00,000.00,026.0,025.1,000.0,034.4,027.7,010.0,0000.0,0004.19,0002.15,0001.71
2024-05-22 06:29:00,SystemResetWarning,0829.0,5.02,000.00,026.0,025.1,000.0,034.3,027.7,009.6,0000.0,0004.08,0002.13,0001.71
2024-05-22 06:30:00,SystemResetWarning,0829.1,5.00,000.00,025.9,025.1,000.0,034.3,027.7,010.0,0000.0,0004.19,0002.15,0001.71
2024-05-22 06:31:00,SystemResetWarning,0829.1,5.00,000.00,025.9,025.0,000.0,034.3,027.7,009.8,0000.0,0004.25,0002.18,0001.71
2024-05-22 06:32:00,SystemResetWarning,0829.1,5.00,000.00,025.9,025.0,000.0,034.3,027.7,009.6,0000.0,0003.52,0002.18,0001.72
2024-05-22 06:33:00,SystemResetWarning,0829.1,5.00,000.00,025.9,025.0,000.0,034.3,027.6,010.1,0000.0,0003.27,0002.16,0001.71
2024-05-22 06:34:00,SystemResetWarning,0829.2,4.99,000.00,025.9,025.0,000.0,034.3,027.6,010.2,0000.0,0003.59,0002.14,0001.71
2024-05-22 06:35:00,SystemResetWarning,0829.3,5.00,000.00,025.9,025.0,000.0,034.2,027.6,010.0,0000.0,0003.65,0002.11,0001.71
2024-05-22 06:36:00,SystemResetWarning,0829.2,5.00,000.00,025.9,025.0,000.0,034.2,027.6,010.0,0000.0,0003.49,0002.05,0001.71
2024-05-22 06:37:00,SystemResetWarning,0829.1,5.00,000.00,025.9,025.0,000.0,034.2,027.6,009.9,0000.0,0003.47,0002.06,0001.71
2024-05-22 06:38:00,SystemResetWarning,0829.1,5.01,000.00,025.9,025.0,000.0,034.2,027.6,009.9,0000.0,0003.40,0002.02,0001.70
2024-05-22 06:39:00,SystemResetWarning,0829.1,5.00,000.00,025.9,025.0,000.0,034.2,027.6,009.7,0000.0,0003.20,0001.97,0001.69
2024-05-22 06:40:00,SystemResetWarning,0829.0,4.99,000.00,025.8,025.0,000.0,034.2,027.6,009.9,0000.0,0003.16,0001.97,0001.69
2024-05-22 06:41:00,SystemResetWarning,0829.0,4.99,000.00,025.8,025.0,000.0,034.2,027.6,009.8,0000.0,0003.12,0001.98,0001.70
2024-05-22 06:42:00,SystemResetWarning,0829.0,5.00,000.00,025.8,024.9,000.0,034.2,027.6,010.0,0000.0,0003.16,0002.00,0001.71
2024-05-22 06:43:00,SystemResetWarning,0829.1,5.01,000.00,025.8,024.9,000.0,034.2,027.6,010.1,0000.0,0003.13,0002.00,0001.71
2024-05-22 06:44:00,SystemResetWarning,0829.1,5.00,000.00,025.8,024.9,000.0,034.1,027.5,009.9,0000.0,0003.15,0002.00,0001.71
2024-05-22 06:45:00,SystemResetWarning,0829.2,5.00,000.00,025.8,024.9,000.0,034.1,027.5,010.0,0000.0,0002.86,0002.02,0001.71
2024-05-22 06:46:00,SystemResetWarning,0829.1,5.00,000.00,025.8,024.8,000.0,034.1,027.5,010.1,0000.0,0002.70,0002.04,0001.72
2024-05-22 06:47:00,SystemResetWarning,0829.1,5.01,000.00,025.7,024.8,000.0,034.1,027.5,010.3,0000.0,0002.75,0002.08,0001.75
2024-05-22 06:48:00,SystemResetWarning,0829.2,5.00,000.00,025.7,024.8,000.0,034.1,027.4,010.2,0000.0,0002.86,0002.08,0001.75
2024-05-22 06:49:00,SystemResetWarning,0829.1,5.00,000.00,025.7,024.8,000.0,034.1,027.4,010.2,0000.0,0002.90,0002.09,0001.76
2024-05-22 06:50:00,SystemResetWarning,0829.1,5.00,000.00,025.7,024.8,000.0,034.1,027.4,010.4,0000.0,0002.94,0002.08,0001.75
2024-05-22 06:51:00,SystemResetWarning,0829.0,5.01,000.00,025.7,024.8,000.0,034.0,027.4,010.3,0000.0,0003.02,0002.09,0001.75
2024-05-22 06:52:00,SystemResetWarning,0829.0,5.00,000.00,025.7,024.8,000.0,034.0,027.4,010.3,0000.0,0003.01,0002.07,0001.74
2024-05-22 06:53:00,SystemResetWarning,0829.0,4.99,000.00,025.7,024.8,000.0,034.0,027.4,010.5,0000.0,0002.89,0002.02,0001.73
2024-05-22 06:54:00,SystemResetWarning,0828.9,5.00,000.00,025.7,024.8,000.0,034.0,027.4,010.6,0000.0,0002.89,0002.02,0001.73
2024-05-22 06:55:00,SystemResetWarning,0829.0,4.99,000.00,025.7,024.8,000.0,034.0,027.4,010.5,0000.0,0002.84,0002.01,0001.73
2024-05-22 06:56:00,SystemResetWarning,0829.0,5.00,000.00,025.7,024.8,000.0,034.0,027.4,010.6,0000.0,0003.40,0002.03,0001.73
2024-05-22 06:57:00,SystemResetWarning,0828.9,5.00,000.00,025.6,024.8,000.0,034.0,027.3,010.7,0000.0,0003.83,0002.02,0001.73
2024-05-22 06:58:00,SystemResetWarning,0828.9,5.01,000.00,025.6,024.8,000.0,034.0,027.3,010.9,0000.0,0003.98,0002.03,0001.72
2024-05-22 06:59:00,SystemResetWarning,0829.0,5.00,000.00,025.6,024.8,000.0,034.0,027.4,010.9,0000.0,0003.84,0002.00,0001.70
